#timestamp,LO_Frequency,Hit,StdDev 
1455886815.9,286046993.0,N
1455886835.7,286046991.0,N
1455886855.5,286046992.3,N
1455886875.3,286046994.7,N
1455886895.2,286046994.5,N
1455886915.0,286046994.6,N
1455886915.9,286046994.6,N
1455886935.7,286046993.3,N
1455886955.6,286046994.2,N
1455886975.4,286046995.6,N
1455886995.2,286046993.9,N
1455887015.1,286046994.9,N
1455887016.0,286046994.9,N
1455887035.8,286047002.4,N
1455887055.6,286047005.6,N
1455887075.5,286047005.5,N
1455887095.3,286047001.8,N
1455887115.1,286047004.4,N
1455887135.9,286047005.2,N
1455887155.7,286047007.0,N
1455887175.5,286047007.6,N
1455887195.3,286047007.1,N
1455887215.2,286047007.3,N
1455887235.0,286047007.2,N
1455887235.9,286047007.2,N
1455887255.7,286047007.8,N
1455887275.6,286047010.5,N
1455887295.4,286047009.5,N
1455887315.2,286047011.3,N
1455887335.1,286047013.7,N
1455887336.0,286047013.7,N
1455887355.8,286047016.6,N
1455887375.6,286047017.0,N
1455887395.5,286047018.8,N
1455887415.3,286047018.6,N
1455887435.1,286047016.4,N
1455887455.9,286047015.2,N
1455887475.7,286047015.8,N
1455887495.5,286047018.1,N
1455887515.4,286047015.7,N
1455887535.2,286047018.7,N
1455887555.0,286047018.7,N
1455887555.9,286047018.7,Y
1455887575.8,286047006.9,P
1455887595.6,286047006.1,P
1455887615.4,286047006.9,P
1455887635.3,286047008.6,Y
1455887655.1,286046999.3,P
1455887656.0,286046999.3,N
1455887675.8,286046998.4,N
1455887695.7,286046996.6,N
1455887715.5,286047000.5,N
1455887735.3,286047001.9,N
1455887755.1,286047000.8,N
1455887775.9,286046999.1,N
1455887795.7,286046994.9,N
1455887815.5,286046996.3,N
1455887835.4,286046992.6,N
1455887855.2,286046991.6,N
1455887875.0,286046989.0,N
1455887875.9,286046989.0,N
1455887895.8,286046990.5,N
1455887915.6,286046990.0,N
1455887935.4,286046985.8,N
1455887955.3,286046987.9,N
1455887975.1,286046987.4,N
1455887976.0,286046987.4,N
1455887995.8,286046988.0,N
1455888015.7,286046987.6,N
1455888035.5,286046987.4,N
1455888055.3,286046985.8,N
1455888075.2,286046989.6,N
1455888095.9,286046987.2,N
1455888115.7,286046990.0,N
1455888135.5,286046987.3,N
1455888155.4,286046986.9,N
1455888175.2,286046986.7,N
1455888195.0,286046986.2,N
1455888195.9,286046986.2,N
1455888215.8,286046987.4,N
1455888235.6,286046981.0,Y
1455888255.4,286046989.4,P
1455888275.3,286046987.4,P
1455888295.1,286046990.6,P
1455888315.8,286046990.7,Y
1455888335.7,286047001.2,P
1455888355.5,286047002.6,N
1455888375.3,286047000.0,N
1455888395.2,286047000.0,N
1455888415.0,286047004.1,N
1455888415.9,286047004.1,N
1455888435.7,286047001.4,N
1455888455.6,286047002.5,N
1455888475.4,286047001.6,N
1455888495.2,286047003.6,N
1455888515.1,286047007.5,N
1455888516.0,286047007.5,N
1455888535.8,286047009.1,N
1455888555.6,286047006.3,N
1455888575.5,286047002.9,N
1455888595.3,286047003.7,N
1455888615.1,286047006.4,N
1455888635.9,286047006.1,N
1455888655.7,286047007.9,N
1455888675.5,286047009.9,N
1455888695.3,286047007.1,N
1455888715.2,286047004.9,N
1455888735.0,286047005.4,N
1455888735.9,286047005.4,N
1455888755.7,286047009.6,N
1455888775.6,286047013.5,Y
1455888795.4,286047009.8,P
1455888815.2,286047011.3,P
1455888835.1,286047012.6,P
1455888836.0,286047012.6,Y
1455888855.8,286047007.2,P
1455888875.6,286047008.4,P
1455888895.5,286047010.6,P
1455888915.3,286047009.3,Y
1455888935.1,286046995.1,P
1455888955.9,286046994.2,N
1455888975.7,286046993.7,N
1455888995.5,286046994.1,N
1455889015.4,286046996.0,N
1455889035.2,286046993.6,N
1455889055.0,286046995.6,N
1455889055.9,286046995.6,N
1455889075.8,286046993.6,N
1455889095.6,286046992.0,N
1455889115.4,286046997.7,N
1455889135.3,286046999.9,N
1455889155.1,286047002.7,N
1455889156.0,286047002.7,N
1455889175.8,286047000.1,N
1455889195.7,286047002.4,N
1455889215.5,286047001.6,N
1455889235.3,286047000.9,N
1455889255.1,286047001.9,N
1455889275.9,286047006.0,N
1455889295.7,286047005.2,N
1455889315.5,286047004.6,N
1455889335.4,286047010.5,N
1455889355.2,286047010.6,N
1455889375.0,286047006.3,N
1455889375.9,286047006.3,N
1455889395.8,286047010.5,N
1455889415.6,286047011.0,N
1455889435.4,286047012.8,N
1455889455.3,286047017.6,N
1455889475.1,286047016.6,N
1455889476.0,286047016.6,N
1455889495.8,286047014.3,N
1455889515.7,286047016.7,N
1455889535.5,286047018.0,N
1455889555.3,286047020.5,N
1455889575.1,286047017.7,N
1455889595.9,286047023.6,Y
1455889615.7,286047018.6,P
1455889635.6,286047016.2,N
1455889655.4,286047018.6,P
1455889675.2,286047021.3,Y
1455889695.1,286047006.8,P
1455889696.0,286047006.8,N
1455889715.8,286047004.4,N
1455889735.6,286046998.1,N
1455889755.4,286046996.7,N
1455889775.3,286046996.7,N
1455889795.1,286046996.5,N
1455889815.8,286046999.6,N
1455889835.7,286046995.1,N
1455889855.5,286046993.6,N
1455889875.3,286046992.9,N
1455889895.2,286046991.5,N
1455889915.9,286046988.8,N
1455889935.7,286046991.1,N
1455889955.6,286046991.2,N
1455889975.4,286046992.7,N
1455889995.2,286046993.0,N
1455890015.0,286046989.8,N
1455890016.0,286046989.8,N
1455890035.8,286046991.0,N
1455890055.6,286046992.5,N
1455890075.4,286046989.2,N
1455890095.3,286046989.8,N
1455890115.1,286046990.8,N
1455890135.8,286046991.4,N
1455890155.7,286046991.1,N
1455890175.5,286046992.8,N
1455890195.3,286046991.4,N
1455890215.2,286046991.0,N
1455890235.9,286046988.5,N
1455890255.7,286046988.8,N
1455890275.6,286046990.2,N
1455890295.4,286046992.4,N
1455890315.2,286046993.1,N
1455890335.1,286046992.5,N
1455890336.0,286046992.5,Y
1455890355.8,286047000.6,P
1455890375.6,286046998.6,N
1455890395.5,286046998.9,N
1455886815.4,286046997.5,N
1455886835.2,286046997.4,N
1455886855.0,286046997.8,N
1455886855.9,286046997.8,N
1455886875.8,286046995.3,N
1455886895.6,286046998.0,N
1455886915.4,286046993.8,N
1455886935.3,286046995.5,N
1455886955.1,286046993.2,N
1455886956.0,286046993.2,N
1455886975.8,286046989.8,N
1455886995.7,286046988.1,Y
1455887015.5,286046985.3,P
1455887035.3,286046985.7,N
1455887055.2,286046986.0,P
1455887075.9,286046983.1,Y
1455887095.7,286046995.3,P
1455887115.6,286046996.1,N
1455887135.4,286046992.9,N
1455887155.2,286046990.4,Y
1455887175.1,286046995.6,P
1455887176.0,286046995.6,P
1455887195.8,286046996.9,N
1455887215.6,286046997.2,N
1455887235.5,286047001.2,N
1455887255.3,286047003.1,N
1455887275.1,286047003.5,N
1455887295.9,286047004.1,N
1455887315.7,286047002.2,N
1455887335.5,286047000.2,N
1455887355.4,286047000.1,N
1455887375.2,286046998.3,N
1455887395.0,286046997.4,N
1455887395.9,286046997.4,N
1455887415.7,286046991.8,N
1455887435.6,286046991.2,N
1455887455.4,286046990.0,N
1455887475.2,286046991.3,N
1455887495.1,286046991.6,N
1455887496.0,286046991.6,N
1455887515.8,286046993.1,N
1455887535.6,286046994.6,N
1455887555.5,286046994.8,N
1455887575.3,286046996.0,N
1455887595.1,286046994.9,N
1455887615.9,286046997.6,N
1455887635.7,286046998.1,N
1455887655.5,286047004.1,N
1455887675.4,286047004.9,N
1455887695.2,286047004.7,N
1455887715.0,286047008.8,N
1455887715.9,286047008.8,N
1455887735.8,286047004.2,N
1455887755.6,286047001.5,N
1455887775.4,286047002.0,N
1455887795.2,286047001.5,N
1455887815.1,286047001.3,N
1455887816.0,286047001.3,N
1455887835.8,286047005.6,N
1455887855.6,286047007.6,N
1455887875.5,286047006.9,N
1455887895.3,286047007.2,N
1455887915.1,286047004.8,N
1455887935.9,286047004.1,N
1455887955.7,286047000.2,N
1455887975.5,286046998.4,N
1455887995.4,286046998.2,N
1455888015.2,286046998.8,N
1455888035.0,286046996.7,N
1455888035.9,286046996.7,N
1455888055.8,286046997.6,N
1455888075.6,286046994.7,N
1455888095.4,286046994.9,N
1455888115.3,286046997.3,N
1455888135.1,286046997.4,N
1455888136.0,286046997.4,N
1455888155.8,286046995.7,N
1455888175.7,286046997.3,N
1455888195.5,286046993.8,N
1455888215.3,286046991.8,N
1455888235.1,286046994.8,N
1455888255.9,286046993.6,N
1455888275.7,286046997.2,N
1455888295.5,286047000.2,N
1455888315.4,286047001.7,N
1455888335.2,286047005.7,N
1455888355.0,286047005.8,N
1455888355.9,286047005.8,N
1455888375.8,286047009.1,N
1455888395.6,286047009.1,N
1455888415.4,286047008.5,N
1455888435.3,286047011.3,N
1455888455.1,286047012.7,N
1455888456.0,286047012.7,N
1455888475.8,286047018.7,Y
1455888495.7,286047017.5,P
1455888515.5,286047015.3,N
1455888535.3,286047014.6,N
1455888555.2,286047017.6,N
1455888575.9,286047018.7,N
1455888595.7,286047020.4,Y
1455888615.6,286047005.0,P
1455888635.4,286047007.9,N
1455888655.2,286047010.4,N
1455888675.1,286047007.0,N
1455888676.0,286047007.0,N
1455888695.8,286047005.3,N
1455888715.6,286047003.2,N
1455888735.5,286047003.8,N
1455888755.3,286047005.1,N
1455888775.1,286047004.9,N
1455888795.9,286047001.8,N
1455888815.7,286047000.5,N
1455888835.5,286046999.7,N
1455888855.3,286047001.6,N
1455888875.2,286047000.7,N
1455888895.0,286046995.5,N
1455888895.9,286046995.5,N
1455888915.7,286046991.6,N
1455888935.6,286046986.9,N
1455888955.4,286046988.9,N
1455888975.2,286046987.6,N
1455888995.1,286046989.5,N
1455888996.0,286046989.5,N
1455889015.8,286046989.0,N
1455889035.6,286046993.2,N
1455889055.5,286046990.3,N
1455889075.3,286046992.3,N
1455889095.1,286046998.1,N
1455889115.9,286047001.1,N
1455889135.7,286046994.2,N
1455889155.5,286046992.8,N
1455889175.4,286046991.9,N
1455889195.2,286046993.7,N
1455889215.0,286046994.6,N
1455889215.9,286046994.6,N
1455889235.7,286046992.0,N
1455889255.6,286046997.6,N
1455889275.4,286046998.6,N
1455889295.2,286047002.7,N
1455889315.1,286047000.3,N
1455889316.0,286047000.3,N
1455889335.8,286046999.8,N
1455889355.6,286047005.7,N
1455889375.5,286047003.2,N
1455889395.3,286047000.4,N
1455889415.1,286046993.7,N
1455889435.9,286046990.8,N
1455889455.7,286046994.8,N
1455889475.5,286046991.3,N
1455889495.4,286046991.1,N
1455889515.2,286046991.4,N
1455889535.0,286046991.6,N
1455889535.9,286046991.6,N
1455889555.8,286046991.2,N
1455889575.6,286046990.4,N
1455889595.4,286046991.3,N
1455889615.2,286046990.9,N
1455889635.1,286046989.1,N
1455889636.0,286046989.1,N
1455889655.8,286046990.8,N
1455889675.6,286046992.8,N
1455889695.5,286046988.6,N
1455889715.3,286046988.5,N
1455889735.1,286046991.3,N
1455889755.9,286046992.2,N
1455889775.7,286046992.7,N
1455889795.5,286046992.0,N
1455889815.4,286046993.0,N
1455889835.2,286046993.6,N
1455889855.0,286046994.2,N
1455889855.9,286046994.2,N
1455889875.8,286046993.0,N
1455889895.6,286046995.6,N
1455889915.4,286047000.7,N
1455889935.3,286047001.1,N
1455889955.1,286046999.7,N
1455889956.0,286046999.7,N
1455889975.8,286047003.0,N
1455889995.6,286047003.6,N
1455890015.5,286047004.2,N
1455890035.3,286047003.7,N
1455890055.1,286047003.3,N
1455890075.9,286047005.6,N
1455890095.7,286047003.4,N
1455890115.5,286047005.5,N
1455890135.4,286047005.2,N
1455890155.2,286047004.1,N
1455890175.0,286047007.7,N
1455890175.9,286047007.7,N
1455890195.8,286047010.9,N
1455890215.6,286047009.3,N
1455890235.4,286047005.9,N
1455890255.3,286047002.6,N
1455890275.1,286047004.8,N
1455890276.0,286047004.8,N
1455890295.8,286047008.2,N
1455890315.7,286047010.7,N
1455890335.5,286047012.1,N
1455890355.3,286047013.9,N
1455890375.1,286047014.0,N
1455890395.9,286047010.8,N
